Pittsburgh Allegheny Co., PA

11:16 AM EST on January 23, 2018 (GMT -0500)
Allegheny County

Weather History for KAGC - January, 2014

Change the Weather History Date:

Tuesday, January 21, 2014

  Actual Average Record
Temperature  
Mean Temperature 14 °F -  
Max Temperature 24 °F 38 °F 63 °F (2017)
Min Temperature 3 °F 21 °F 3 °F (2014)
Degree Days  
Heating Degree Days 50    
Moisture  
Dew Point 10 °F    
Average Humidity 73    
Maximum Humidity 86    
Minimum Humidity 53    
Precipitation  
Precipitation 0.13 in - - ()
Sea Level Pressure  
Sea Level Pressure 29.91 in    
Wind  
Wind Speed 9 mph (North)    
Max Wind Speed 16 mph    
Max Gust Speed 25 mph    
Visibility 4 miles    
Events Fog , Snow    
Averages and records for this station are not official NWS values.
T = Trace of Precipitation, MM = Missing Value Source: NWS Daily Summary

Daily Weather History Graph

Daily Weather History Graph

Search for Another Location

Airport or City:

Trip Planner

Search our weather history database for the weather conditions in past years. The results will help you decide how hot, cold, wet, or windy it might be!

Date:

Astronomy

Jan. 21, 2014 Rise Set
Actual Time 7:37 AM EST 5:24 PM EST
Civil Twilight 7:08 AM EST 5:54 PM EST
Nautical Twilight 6:34 AM EST 6:27 PM EST
Astronomical Twilight 6:02 AM EST 7:00 PM EST
Moon 10:57 PM EST (1/21) 10:05 AM EST (1/21)
Length of Visible Light 10h 46m
Length of Day
9h 47m
Waning Gibbous, 75% of the Moon is Illuminated
Jan 21
Waning Gibbous
Jan 24
Last Quarter
Jan 30
New
Feb 6
First Quarter
Feb 14
Full

Hourly Weather History & Observations

Time (EST) Temp. Windchill Dew Point Humidity Pressure Visibility Wind Dir Wind Speed Gust Speed Precip Events Conditions
12:53 AM 24.1 °F 18.2 °F 17.1 °F 75% 29.92 in 10.0 mi North 4.6 mph - N/A   Overcast
1:53 AM 23.0 °F 18.4 °F 15.1 °F 72% 29.93 in 10.0 mi North 3.5 mph - N/A   Mostly Cloudy
2:53 AM 21.9 °F 15.7 °F 15.1 °F 75% 29.91 in 10.0 mi North 4.6 mph - N/A   Overcast
3:53 AM 21.9 °F 14.5 °F 14.0 °F 72% 29.89 in 10.0 mi NNE 5.8 mph - N/A   Overcast
4:53 AM 21.9 °F 17.2 °F 15.1 °F 75% 29.87 in 7.0 mi North 3.5 mph - N/A   Overcast
5:23 AM 21.2 °F 11.7 °F 15.8 °F 80% 29.81 in 2.0 mi North 8.1 mph - 0.00 in Snow Light Snow
5:53 AM 21.0 °F 13.4 °F 17.1 °F 85% 29.86 in 1.8 mi North 5.8 mph - 0.00 in Snow Light Snow
6:00 AM 21.2 °F 10.1 °F 17.6 °F 86% 29.81 in 1.2 mi North 10.4 mph - 0.00 in Snow Light Snow
6:53 AM 19.9 °F 9.3 °F 16.0 °F 85% 29.88 in 1.0 mi North 9.2 mph - 0.02 in Snow Light Snow
7:53 AM 19.9 °F 9.3 °F 15.1 °F 81% 29.90 in 1.0 mi North 9.2 mph - 0.02 in Snow Light Snow
8:01 AM 19.4 °F 8.6 °F 15.8 °F 86% 29.84 in 0.5 mi North 9.2 mph - 0.01 in Snow Snow
8:18 AM 19.4 °F 6.6 °F 15.8 °F 86% 29.84 in 0.5 mi North 12.7 mph 18.4 mph 0.01 in Fog , Snow Light Snow
8:53 AM 18.0 °F 5.4 °F 14.0 °F 84% 29.91 in 0.5 mi North 11.5 mph 20.7 mph 0.03 in Fog , Snow Light Snow
9:00 AM 19.4 °F 8.6 °F 14.0 °F 80% 29.84 in 0.2 mi North 9.2 mph 19.6 mph 0.00 in Snow Heavy Snow
9:12 AM 17.6 °F 6.4 °F 14.0 °F 86% 29.84 in 0.5 mi North 9.2 mph 19.6 mph 0.00 in Fog , Snow Light Snow
9:53 AM 18.0 °F 6.1 °F 12.9 °F 81% 29.93 in 0.5 mi North 10.4 mph 21.9 mph 0.01 in Snow Snow
10:00 AM 17.6 °F 5.7 °F 12.2 °F 79% 29.87 in 0.5 mi North 10.4 mph 18.4 mph 0.01 in Snow Snow
10:44 AM 17.6 °F 5.7 °F 12.2 °F 79% 29.88 in 0.2 mi North 10.4 mph - 0.02 in Snow Heavy Snow
10:53 AM 18.0 °F 5.4 °F 12.9 °F 81% 29.95 in 0.2 mi North 11.5 mph - 0.02 in Snow Heavy Snow
11:05 AM 17.6 °F 2.7 °F 12.2 °F 79% 29.88 in 0.5 mi North 16.1 mph 24.2 mph 0.01 in Snow Snow
11:20 AM 17.6 °F 5.0 °F 12.2 °F 79% 29.87 in 0.2 mi North 11.5 mph - 0.01 in Snow Heavy Snow
11:53 AM 17.1 °F 3.0 °F 10.9 °F 77% 29.94 in 0.2 mi North 13.8 mph 23.0 mph 0.01 in Snow Heavy Snow
11:59 AM 17.6 °F 5.0 °F 10.4 °F 73% 29.87 in 0.5 mi North 11.5 mph 23.0 mph 0.01 in Snow Snow
12:42 PM 19.4 °F 6.0 °F 12.2 °F 74% 29.85 in 0.8 mi North 13.8 mph 18.4 mph 0.01 in Snow Light Snow
12:53 PM 18.0 °F 4.8 °F 10.0 °F 71% 29.92 in 0.8 mi North 12.7 mph 24.2 mph 0.02 in Snow Light Snow
12:56 PM 17.6 °F 2.7 °F 10.4 °F 73% 29.85 in 1.0 mi North 16.1 mph 24.2 mph 0.00 in Snow Light Snow
1:40 PM 15.8 °F 2.7 °F 8.6 °F 73% 29.85 in 0.8 mi North 11.5 mph 24.2 mph 0.00 in Snow Light Snow
1:53 PM 17.1 °F 4.3 °F 10.9 °F 77% 29.92 in 0.5 mi North 11.5 mph - 0.00 in Snow Snow
2:03 PM 17.6 °F 5.0 °F 10.4 °F 73% 29.85 in 0.2 mi North 11.5 mph 21.9 mph 0.00 in Snow Heavy Snow
2:16 PM 17.6 °F 3.7 °F 10.4 °F 73% 29.85 in 0.8 mi North 13.8 mph 20.7 mph 0.00 in Snow Light Snow
2:22 PM 17.6 °F 3.7 °F 8.6 °F 68% 29.85 in 2.0 mi North 13.8 mph 21.9 mph 0.00 in Snow Light Snow
2:26 PM 17.6 °F 3.2 °F 8.6 °F 68% 29.85 in 1.8 mi North 15.0 mph 21.9 mph 0.00 in Snow Light Snow
2:42 PM 17.6 °F 5.0 °F 8.6 °F 68% 29.85 in 3.0 mi North 11.5 mph 20.7 mph 0.00 in Snow Light Snow
2:50 PM 17.6 °F 3.7 °F 8.6 °F 68% 29.85 in 1.8 mi North 13.8 mph 21.9 mph 0.00 in Snow Light Snow
2:53 PM 16.0 °F 1.1 °F 9.0 °F 74% 29.93 in 1.5 mi North 15.0 mph 21.9 mph 0.00 in Snow Light Snow
3:05 PM 15.8 °F 0.9 °F 8.6 °F 73% 29.85 in 2.0 mi NNW 15.0 mph 21.9 mph 0.00 in Snow Light Snow
3:24 PM 15.8 °F 0.9 °F 6.8 °F 68% 29.86 in 3.0 mi North 15.0 mph 23.0 mph 0.00 in Snow Light Snow
3:29 PM 15.8 °F 2.7 °F 6.8 °F 68% 29.86 in 2.0 mi North 11.5 mph 23.0 mph 0.00 in Snow Light Snow
3:53 PM 16.0 °F 4.4 °F 5.0 °F 62% 29.94 in 10.0 mi North 9.2 mph 18.4 mph 0.00 in   Mostly Cloudy
4:53 PM 15.1 °F 0.5 °F 1.9 °F 56% 29.96 in 10.0 mi NNW 13.8 mph 21.9 mph N/A   Partly Cloudy
5:53 PM 14.0 °F 2.9 °F 1.0 °F 56% 29.99 in 10.0 mi NNW 8.1 mph 21.9 mph N/A   Overcast
6:53 PM 12.0 °F - -2.0 °F 53% 30.03 in - North - - N/A   Unknown
7:53 PM 10.0 °F -5.2 °F -2.0 °F 58% 30.06 in 10.0 mi North 12.7 mph 25.3 mph N/A   Overcast
8:53 PM 8.1 °F -7.7 °F -2.9 °F 61% 30.08 in 10.0 mi North 12.7 mph 18.4 mph N/A   Overcast
9:53 PM 6.1 °F -9.5 °F -4.0 °F 63% 30.09 in 10.0 mi North 11.5 mph 19.6 mph N/A   Overcast
10:53 PM 5.0 °F -9.1 °F -4.0 °F 66% 30.09 in 10.0 mi NNW 9.2 mph - N/A   Partly Cloudy
11:53 PM 3.9 °F -12.2 °F -4.0 °F 70% 30.09 in 10.0 mi NNW 11.5 mph 19.6 mph N/A   Clear